Location: Angwan Shehu
(11.2514°N, 7.4613°E)
Time: 05:40:47
(UTC+00:00)

SR - Pass Details

Date: 17 April 2021
Orbit: 573 x 882 km, 66.7° (Epoch: 12 May)

Event Time Altitude Azimuth Distance (km) Brightness Sun altitude
Rises 17:49:55 0° 334° (NNW) 3,322 ? -2.8°
Reaches altitude 10° 17:52:27 10° 331° (NNW) 2,346 ? -3.4°
Maximum altitude 17:57:45 61° 251° (WSW) 838 ? -4.7°
Drops below altitude 10° 18:02:34 10° 171° (S) 2,142 ? -5.8°
Sets 18:04:49 0° 168° (SSE) 3,010 ? -6.4°
